Welcome to the New NWS' Forecast!
Most changes are behind the scenes, but click here for differences you might notice.
Latest weather observations around

Russellville, Russellville Regional Airport (KRUE)

Using English Units (Switch to International System of Units)
Date/ Time (CDT) Wind (mph) Vis. (mi) Weather Sky Cond. Temp (°F) Rel. Humidity Wind Chill (°F) Heat Index (°F) Pressure Precip. (in)
Air Dwpt 6 hour Altimeter (inHg) Sea level (inHg) 1 hr 3 hr 6 hr
Max Min
Sep 25 03:53 Calm 8 Clear CLR 67 66     97%     29.95 29.92      
Sep 25 02:53 Calm 7 Clear CLR 66 66     100%     29.95 29.93      
Sep 25 01:53 Calm 8 Clear CLR 67 66     97%     29.96 29.93      
Sep 25 00:53 Calm 8 Clear CLR 67 66     97%     29.95 29.92      
Sep 24 23:53 Calm 10 Clear CLR 68 67     96%     29.95 29.92      
Sep 24 22:53 Calm 10 Clear CLR 68 67     96%     29.95 29.93      
Sep 24 21:53 Calm 10 Clear CLR 70 68     93%     29.95 29.93      
Sep 24 20:53 Calm 10 Clear CLR 71 68     90%   72 29.95 29.93      
Sep 24 19:53 Calm 10 Clear CLR 74 69     85%   75 29.92 29.9      
Sep 24 18:53 Calm 10 Partly Cloudy SCT100 78 67     69%   79 29.93 29.91      
Sep 24 18:50 ENE 5 10 Partly Cloudy SCT100 SCT120 77 66     69%   78 29.93        
Sep 24 18:35 ESE 3 10 Thunderstorms SCT100 SCT120 79 66     65%   80 29.93        
Sep 24 17:53 WSW 8 10 Mostly Clear FEW080 77 68     74%   78 29.93 29.91      
Sep 24 17:45 WSW 8 10 Partly Cloudy FEW060 SCT080 78 67     69%   79 29.93        
Sep 24 17:27 SSW 9 10 Mostly Cloudy SCT060 BKN075 BKN090 80 66     62%   82 29.93        
Sep 24 17:12 SSW 9 10 Mostly Cloudy SCT070 BKN090 83 66     57%   85 29.92        
Sep 24 16:53 WSW 9 10 Mostly Cloudy BKN065 BKN080 83 66     57%   85 29.91 29.89      
Sep 24 15:53 6 10 Clear CLR 91 65     42%   93 29.9 29.88      
Sep 24 14:53 ESE 8 10 Mostly Clear FEW060 91 66     44%   94 29.92 29.9      
Sep 24 13:53 S 6 10 Mostly Clear FEW050 90 66     45%   93 29.95 29.93      
Sep 24 12:53 ESE 6 10 Partly Cloudy SCT047 88 68     52%   92 29.97 29.95      
Sep 24 11:53 ESE 6 10 Clear CLR 87 68     53%   91 29.99 29.96      
Sep 24 10:53 Calm 10 Mostly Clear FEW060 84 70     63%   88 30 29.98      
Sep 24 09:53 3 10 Clear CLR 80 70     71%   83 30 29.98      
Sep 24 08:53 Calm 10 Clear CLR 77 70     79%   78 29.99 29.96      
Sep 24 07:53 Calm 9 Clear CLR 70 69     97%     29.98 29.96      
Sep 24 06:53 Calm 10 Clear CLR 68 67     96%     29.97 29.95      
Sep 24 05:53 Calm 10 Clear CLR 69 68     96%     29.96 29.93      
Sep 24 04:53 Calm 10 Clear CLR 70 68     93%     29.95 29.93      
Sep 24 03:53 Calm 10 Clear CLR 70 68     93%     29.95 29.92      
Sep 24 01:53 Calm 10 Clear CLR 71 68     90%   72 29.95 29.92      
Sep 24 00:53 Calm 10 Clear CLR 72 68     87%   73 29.94 29.92      
Sep 23 23:53 ESE 3 10 Clear CLR 76 67     74%   77 29.95 29.92      
Sep 23 22:53 Calm 10 Clear CLR 78 67     69%   79 29.95 29.93      
Sep 23 21:53 E 3 10 Clear CLR 79 67     67%   80 29.95 29.93      
Sep 23 20:53 E 3 10 Clear CLR 81 66     61%   83 29.94 29.92      
Sep 23 19:53 E 5 10 Clear CLR 83 65     55%   85 29.93 29.9      
Sep 23 18:53 E 7 10 Clear CLR 87 65     48%   89 29.92 29.9      
Sep 23 17:53 E 7 10 Clear CLR 90 64     42%   91 29.92 29.89      
Sep 23 16:53 E 8 10 Clear CLR 93 61     35%   93 29.92 29.89      
Sep 23 15:53 E 8 10 Clear CLR 93 60     33%   93 29.93 29.9      
Sep 23 14:53 ESE 8 10 Clear CLR 93 62     36%   94 29.95 29.92      
Sep 23 13:53 6 10 Mostly Clear FEW060 92 66     43%   95 29.97 29.94      
Sep 23 12:53 ESE 6 10 Mostly Clear FEW050 90 67     47%   93 30 29.97      
Sep 23 11:53 E 5 10 Clear CLR 89 67     48%   92 30.02 30      
Sep 23 10:53 NE 3 10 Clear CLR 86 70     59%   91 30.03 30.01      
Sep 23 09:53 Calm 10 Clear CLR 80 71     74%   84 30.03 30      
Sep 23 08:53 Calm 10 Clear   74 69     85%   75 30.02 30      
Sep 23 07:53 Calm 5 Fog/Mist CLR 69 68     96%     30 29.98      
Sep 23 06:53 Calm 5 Fog/Mist CLR 66 66     100%     30 29.97      
Sep 23 05:53 Calm 5 Fog/Mist CLR 67 67     100%     29.98 29.96      
Sep 23 04:53 Calm 7 Clear CLR 68 67     96%     29.97 29.94      
Sep 23 03:53 Calm 8 Clear CLR 68 67     96%     29.97 29.95      
Sep 23 02:53 Calm 9 Clear CLR 69 68     96%     29.97 29.94      
Sep 23 01:53 Calm 10 Clear CLR 70 68     93%     29.97 29.95      
Sep 23 00:53 Calm 10 Clear CLR 72 68     87%   73 29.97 29.95      
Sep 22 23:53 Calm 10 Clear CLR 73 68     84%   74 29.98 29.95      
Sep 22 22:53 Calm 10 Clear CLR 76 68     76%   77 29.97 29.94      
Sep 22 21:53 Calm 10 Clear CLR 75 70     84%   76 29.96 29.93      
Sep 22 20:53 ESE 3 10 Clear CLR 78 70     76%   79 29.95 29.93      
Sep 22 19:53 Calm 10 Partly Cloudy SCT110 78 71     79%   79 29.94 29.92      
Sep 22 18:53 Calm 10 Cloudy OVC110 84 70     63%   88 29.93 29.91      
Sep 22 17:53 ESE 6 10 Mostly Clear FEW120 90 66     45%   93 29.94 29.91      
Sep 22 16:53 Calm 10 Clear CLR 91 66     44%   94 29.94 29.91      
Sep 22 15:53 SE 6 10 Clear CLR 93 68     44%   97 29.96 29.93      
Sep 22 14:53 6 10 Mostly Clear FEW110 90 68     49%   94 29.97 29.95      
Sep 22 13:53 3 10 Mostly Cloudy FEW065 BKN100 BKN110 88 69     54%   92 29.99 29.97      
Sep 22 12:53 3 10 Partly Cloudy SCT043 SCT050 90 69     50%   95 30.02 29.99      
Sep 22 11:53 W 6 10 Mostly Clear FEW042 88 69     54%   92 30.03 30.01      
Sep 22 10:53 SE 6 10 Clear CLR 86 71     61%   92 30.05 30.02      
Sep 22 09:53 Calm 10 Clear CLR 82 72     72%   87 30.04 30.02      
Sep 22 08:53 Calm 10 Clear CLR 77 72     84%   78 30.03 30.01      
Sep 22 07:53 Calm 9 Clear CLR 71 70     96%   72 30.02 30      
Sep 22 06:53 Calm 7 Clear   68 68     100%     30.02 30      
Sep 22 05:53 Calm 8 Clear CLR 69 68     96%     30.01 29.98      
Sep 22 04:53 Calm 10 Clear CLR 69 69     100%     30 29.97      
Jun 12 05:53 SSE 3 10 Clear CLR 71 69     93%   72 29.98 29.96      
Jun 11 01:53 5 10 Clear   72 64     76%   72 29.96 29.94      
Jun 10 16:53 S 8 10 Cloudy FEW047 OVC060 83 66     57%   85 29.91 29.89      
Jun 09 15:53 SSW 5 10 Clear CLR 80 56     44%   80 29.92 29.9      
Jun 08 07:53 Calm 10 Clear CLR 64 57     78%     30.04 30.02      
Jun 07 10:53 NNE 6 10 Clear CLR 77 56     48%   77 30.02 29.99      
Jun 06 06:42 Calm 1.5 Fog/Mist OVC002 68 67     96%     29.85        
Jun 06 04:53 Calm 9 Clear CLR 67 66     97%     29.83 29.81      
Jun 06 02:53 Calm 6 Fog/Mist CLR 68 67     96%     29.82 29.8      
Jun 06 01:22 WNW 3 1.5 Fog/Mist FEW002 68 67     96%     29.81        
Jun 05 23:18 Calm 2.5 Fog/Mist CLR 69 68     96%     29.82        
Jun 05 19:53 Calm 10 Clear CLR 74 71     91%   75 29.78 29.75      
Jun 05 15:00 ENE 8 1.75 Heavy Rain and Fog/Mist FEW029 BKN080 BKN090 75 71     88%   76 29.77   0